Weather History for KTTN - January, 2014

Change the Weather History Date:

Tuesday, January 21, 2014

  Actual Average Record
Temperature  
Mean Temperature 23 °F 31 °F  
Max Temperature 34 °F 39 °F 64 °F (1959)
Min Temperature 12 °F 23 °F -10 °F (1985)
Degree Days  
Heating Degree Days 42 34  
Month to date heating degree days 735 713  
Since 1 July heating degree days 2622 2608  
Cooling Degree Days 0 0  
Month to date cooling degree days 0 0  
Year to date cooling degree days 0 0  
Moisture  
Dew Point 12 °F    
Average Humidity 69    
Maximum Humidity 88    
Minimum Humidity 50    
Precipitation  
Precipitation 0.65 in 0.09 in 2.22 in (1979)
Month to date precipitation 3.09 2.15  
Year to date precipitation 3.09 2.15  
Sea Level Pressure  
Sea Level Pressure 29.90 in    
Wind  
Wind Speed 12 mph (NNE)    
Max Wind Speed 22 mph    
Max Gust Speed 29 mph    
Visibility 3 miles    
Events Fog , Snow    
T = Trace of Precipitation, MM = Missing Value Source: NWS Daily Summary

Daily Weather History Graph

Daily Weather History Graph

Search for Another Location

Airport or City:

Trip Planner

Search our weather history database for the weather conditions in past years. The results will help you decide how hot, cold, wet, or windy it might be!

Date:

Astronomy

Jan. 21, 2014 Rise Set
Actual Time 7:16 AM EST 5:04 PM EST
Civil Twilight 6:47 AM EST 5:34 PM EST
Nautical Twilight 6:14 AM EST 6:07 PM EST
Astronomical Twilight 5:41 AM EST 6:39 PM EST
Moon 10:35 PM EST (1/21) 9:44 AM EST (1/21)
Length of Visible Light 10h 46m
Length of Day
9h 47m
Waning Gibbous, 75% of the Moon is Illuminated
Jan 21
Waning Gibbous
Jan 24
Last Quarter
Jan 30
New
Feb 6
First Quarter
Feb 14
Full

Hourly Weather History & Observations

Time (EST) Temp. Windchill Dew Point Humidity Pressure Visibility Wind Dir Wind Speed Gust Speed Precip Events Conditions
12:53 AM 30.9 °F 23.5 °F 21.9 °F 69% 29.88 in 10.0 mi North 8.1 mph - N/A   Clear
1:53 AM 30.9 °F 22.2 °F 19.0 °F 61% 29.90 in 10.0 mi NNE 10.4 mph - N/A   Clear
2:53 AM 28.0 °F 20.0 °F 15.1 °F 58% 29.92 in 10.0 mi NE 8.1 mph - N/A   Clear
3:53 AM 26.1 °F 16.2 °F 12.0 °F 55% 29.93 in 10.0 mi NNE 10.4 mph 19.6 mph N/A   Clear
4:53 AM 25.0 °F 15.5 °F 10.0 °F 53% 29.92 in 10.0 mi NNE 9.2 mph - N/A   Clear
5:53 AM 25.0 °F 17.1 °F 10.0 °F 53% 29.94 in 10.0 mi NE 6.9 mph - N/A   Scattered Clouds
6:53 AM 24.1 °F 14.4 °F 9.0 °F 53% 29.94 in 10.0 mi NE 9.2 mph 18.4 mph N/A   Overcast
7:53 AM 24.1 °F 12.0 °F 9.0 °F 53% 29.92 in 10.0 mi NE 13.8 mph 18.4 mph N/A   Overcast
8:53 AM 23.0 °F 12.4 °F 14.0 °F 68% 29.94 in 10.0 mi NNE 10.4 mph 18.4 mph N/A   Overcast
9:27 AM 21.2 °F 9.5 °F 15.8 °F 80% 29.96 in 2.5 mi ENE 11.5 mph - 0.00 in Snow Light Snow
9:40 AM 21.2 °F 10.1 °F 15.8 °F 80% 29.96 in 1.5 mi NNE 10.4 mph 18.4 mph 0.00 in Snow Light Snow
9:51 AM 21.2 °F 10.9 °F 15.8 °F 80% 29.97 in 1.0 mi North 9.2 mph 20.7 mph 0.00 in Snow Light Snow
9:53 AM 21.0 °F 10.6 °F 16.0 °F 81% 29.96 in 1.0 mi NNE 9.2 mph 20.7 mph 0.00 in Snow Light Snow
10:03 AM 21.2 °F 10.9 °F 17.6 °F 86% 29.97 in 0.8 mi North 9.2 mph 19.6 mph 0.00 in Snow Light Snow
10:18 AM 21.2 °F 10.1 °F 15.8 °F 80% 29.96 in 0.5 mi North 10.4 mph - 0.01 in Snow Snow
10:44 AM 21.2 °F 10.9 °F 17.6 °F 86% 29.96 in 0.5 mi North 9.2 mph 17.3 mph 0.02 in Fog , Snow Snow
10:53 AM 21.0 °F 9.3 °F 17.1 °F 85% 29.95 in 0.5 mi North 11.5 mph 18.4 mph 0.03 in Fog , Snow Snow
11:53 AM 21.0 °F 10.6 °F 17.1 °F 85% 29.91 in 0.2 mi North 9.2 mph 18.4 mph 0.04 in Fog , Snow Snow
12:38 PM 21.2 °F 7.3 °F 15.8 °F 80% 29.87 in 0.5 mi NNE 16.1 mph 24.2 mph 0.02 in Snow Snow
12:53 PM 21.0 °F 7.6 °F 16.0 °F 81% 29.84 in 0.5 mi NNE 15.0 mph 26.5 mph 0.02 in Snow Snow
1:53 PM 19.0 °F 5.6 °F 15.1 °F 85% 29.82 in 0.5 mi NNE 13.8 mph 25.3 mph 0.00 in Fog , Snow Snow
2:53 PM 19.0 °F 6.1 °F 14.0 °F 81% 29.83 in 0.5 mi NE 12.7 mph - 0.01 in Snow Snow
3:53 PM 17.1 °F 2.5 °F 10.9 °F 77% 29.84 in 0.5 mi NE 15.0 mph 23.0 mph 0.01 in Snow Snow
4:53 PM 16.0 °F 1.1 °F 10.9 °F 81% 29.86 in 0.5 mi NNE 15.0 mph 23.0 mph 0.01 in Snow Snow
5:06 PM 15.8 °F 0.9 °F 10.4 °F 79% 29.86 in 0.8 mi NE 15.0 mph - 0.00 in Snow Light Snow
5:21 PM 15.8 °F 0.3 °F 10.4 °F 79% 29.86 in 1.0 mi NE 16.1 mph - 0.00 in Snow Light Snow
5:53 PM 15.1 °F 0.5 °F 10.0 °F 80% 29.88 in 1.5 mi NNE 13.8 mph 21.9 mph 0.00 in Snow Light Snow
6:10 PM 14.0 °F -0.2 °F 10.4 °F 86% 29.88 in 1.0 mi NNE 12.7 mph - 0.00 in Snow Light Snow
6:17 PM 14.0 °F 1.2 °F 10.4 °F 86% 29.89 in 0.8 mi NNE 10.4 mph 18.4 mph 0.01 in Snow Light Snow
6:38 PM 14.0 °F 0.5 °F 10.4 °F 86% 29.89 in 0.8 mi NNE 11.5 mph 20.7 mph 0.02 in Snow Light Snow
6:53 PM 14.0 °F -1.4 °F 10.0 °F 84% 29.89 in 0.8 mi NNE 15.0 mph 19.6 mph 0.02 in Snow Light Snow
7:09 PM 14.0 °F -0.2 °F 8.6 °F 79% 29.91 in 0.8 mi NE 12.7 mph 20.7 mph 0.00 in Snow Light Snow
7:16 PM 14.0 °F -3.0 °F 8.6 °F 79% 29.89 in 0.8 mi NE 18.4 mph - 0.01 in Snow Light Snow
7:31 PM 12.2 °F -4.3 °F 8.6 °F 85% 29.90 in 1.0 mi NE 16.1 mph 20.7 mph 0.01 in Snow Light Snow
7:36 PM 12.2 °F -3.7 °F 8.6 °F 85% 29.90 in 0.8 mi NE 15.0 mph 20.7 mph 0.01 in Snow Light Snow
7:53 PM 12.9 °F 0.7 °F 9.0 °F 84% 29.90 in 0.8 mi NNE 9.2 mph 21.9 mph 0.02 in Snow Light Snow
8:16 PM 12.2 °F -3.1 °F 8.6 °F 85% 29.89 in 1.0 mi NNE 13.8 mph 19.6 mph 0.00 in Snow Light Snow
8:45 PM 12.2 °F -2.5 °F 8.6 °F 85% 29.88 in 1.8 mi NNE 12.7 mph 21.9 mph 0.01 in   Haze
8:53 PM 12.9 °F -2.2 °F 8.1 °F 81% 29.88 in 2.5 mi NNE 13.8 mph 19.6 mph 0.01 in   Haze
8:56 PM 12.2 °F -2.5 °F 8.6 °F 85% 29.89 in 3.0 mi NNE 12.7 mph 19.6 mph N/A   Haze
9:53 PM 12.9 °F -2.2 °F 6.1 °F 74% 29.88 in 5.0 mi North 13.8 mph 20.7 mph N/A   Haze
10:36 PM 12.2 °F -3.1 °F 6.8 °F 79% 29.87 in 2.5 mi North 13.8 mph 21.9 mph 0.00 in Snow Light Snow
10:45 PM 12.2 °F -4.3 °F 5.0 °F 73% 29.86 in 3.0 mi North 16.1 mph 24.2 mph 0.00 in Snow Light Snow
10:53 PM 12.9 °F -1.6 °F 5.0 °F 71% 29.85 in 4.0 mi North 12.7 mph 24.2 mph 0.00 in Snow Light Snow
11:53 PM 12.0 °F -4.0 °F 3.0 °F 67% 29.82 in 5.0 mi NNE 15.0 mph 25.3 mph 0.00 in Snow Light Snow